User: anonymous   Login
Location: NJAA Observatory
(40.6819°N, 74.8979°W)
Time: 10:00:41
(UTC-05:00)
Language:

Cosmos 2237 Rocket - Orbit

View from above orbital plane
View from above orbital plane
View from above satellite
View from above satellite

Ground track
Ground track

The orbit data is extracted from the following two-line orbital elements,

1 22566U 93016B   17017.20180531  .00000104  00000-0  78377-4 0  9997
2 22566  71.0070  23.8515 0010334 350.6698   9.4231 14.14939571229916
Epoch (UTC): 17 January 2017 04:50:35
Eccentricity: 0.0010334
inclination: 71.0070°
perigee height: 835 km
apogee height: 850 km
right ascension of ascending node: 23.8515°
argument of perigee: 350.6698°
revolutions per day: 14.14939571
mean anomaly at epoch: 9.4231°
orbit number at epoch: 22991

The dashed part of the orbit path shows where the satellite is in the earth's shadow,  

DLR